Location: Wloclawek
(52.6500°N, 19.0500°E)
Time: 23:40:40
(UTC+01:00)

ISS - Visible Passes

Search period start: 21 January 2018 00:00
Search period end: 31 January 2018 00:00
Orbit: 402 x 407 km, 51.6° (Epoch: 22 January)

Date Brightness Start Highest point End Pass type
(mag) Time Alt. Az. Time Alt. Az. Time Alt. Az.
26 Jan -1.0 18:56:00 10° SSW 18:56:24 12° SSW 18:56:24 12° SSW visible
27 Jan -1.8 18:04:26 10° S 18:06:25 16° SE 18:06:25 16° SE visible
28 Jan -1.3 17:13:57 10° SSE 17:14:25 10° SE 17:14:53 10° SE visible
28 Jan -2.1 18:47:08 10° SW 18:49:02 27° SSW 18:49:02 27° SSW visible
29 Jan -2.5 17:55:09 10° SSW 17:57:57 26° SSE 17:58:54 23° ESE visible
29 Jan -0.8 19:30:51 10° WSW 19:31:34 15° WSW 19:31:34 15° WSW visible
30 Jan -1.8 17:03:25 10° S 17:05:45 18° SE 17:08:05 10° E visible
30 Jan -3.3 18:38:33 10° WSW 18:41:23 50° SSW 18:41:23 50° SSW visible
